sat.trackr.live / text

‹ back to catalog

STARLINK-11445 [DTC]

NORAD 62414 · 2024-249F

PAYLOAD ACTIVE UNKNOWN

§ Identity

Operator
Country
US
Launch date
2024-12-23
Launch site
AFETR
Launch vehicle
Mass (kg)
RCS (m²)

Purposes: comms

External: N2YO · Heavens-Above · Gunter

§ Orbital elements

Epoch: 2026-05-25T04:33:21.580704Z

Period
91.67 min
Inclination
43.0043°
Eccentricity
0.0002616
Mean motion
15.70892990 rev/d
Perigee alt
354.6 km
Apogee alt
358.1 km
Semi-major
6,734.5 km
B*
1.3098e-3
RAAN
66.3986°
Arg perigee
256.8087°
Mean anomaly
103.2489°
Rev number
8,151

§ Raw data

STARLINK-11445 [DTC]1 62414U 24249F   26145.18983311  .00171520  00000+0  13098-2 0  99982 62414  43.0043  66.3986 0002616 256.8087 103.2489 15.70892990 81514

JSON: /api/v1/satellites/62414 · /tle

For live sub-satellite position, see the globe view (requires WebGL).

§ Visibility from observer

Set your observer location to see the next 7 days of passes ≥ 10°. The values pass through the URL so the page stays shareable.

No JS? Fill the form by hand. The geolocation button needs JavaScript.